Погода в Инжавино

Россия / Тамбовская область     52°19′14″N   42°29′17″E
темп.,
°C
ветер,
м/с
пор.,
м/с
влажн.,
%
обл.,
%
осадки,
мм/ч
давл.,
гПа
погр.,
м
15 мая, сб
сб1500:00+17юв4118376 0.0 1013189
03:00+16ююв51281100 0.0 1013232
06:00+16ююв41080100 0.0 1013231
09:00+20ю6126199 0.0 1014547
12:00+24ю711509 0.0 10141092
15:00+24ю6125843 0.0 10131574
18:00+23ююз486956 0.0 1014336
21:00+18юз22874 0.3 101413
16 мая, вс
вс1600:00+16сз22915 0.1 101533
03:00+15с2283100 0.6 101514
06:00+17св2382100 0.0 101568
09:00+21в3476100 1.1 1016487
12:00+24ююв454928 0.0 10151092
15:00+25ю5746100 0.0 10151072
18:00+23ю2364100 0.0 101464
21:00+18вюв2269100 0.0 101411
17 мая, пн
пн1700:00+17в337169 0.0 101431
03:00+16вюв347190 0.0 101446
06:00+16вюв486797 0.0 1014129
09:00+21юв585396 0.0 1015361
12:00+26юв694690 0.0 1014701
15:00+27юв7114910 0.0 10131222
18:00+24юв5116110 0.0 1013294
21:00+19вюв616615 0.0 1013268
18 мая, вт
вт1800:00+18вюв617510 0.0 1012309
03:00+16юв513545 0.0 1011211
06:00+15юв411695 0.0 1012201
09:00+22ююв610534 0.0 1011433
12:00+26юв6841100 0.0 10101104
15:00+26ююв51050100 0.0 10101631
18:00+23юз2467100 0.0 1009134
21:00+19ююв1166100 0.0 100915
19 мая, ср
ср1900:00+17сз3588100 0.0 100975
03:00+16зюз3891100 0.1 1010195
06:00+16юв3583100 0.2 1009129
09:00+20ю6976100 0.8 1008761
12:00+20ююз9116941 1.4 10091402
15:00+19юз8106896 2.9 10101449
18:00+18юз6107834 1.1 1011911
21:00+14юз47910 1.1 1013137